sat.trackr.live / text

‹ back to catalog

KUIPER-00055

NORAD 64515 · 2025-134R

PAYLOAD ACTIVE UNKNOWN

§ Identity

Operator
Country
US
Launch date
2025-06-23
Launch site
AFETR
Launch vehicle
Mass (kg)
RCS (m²)

External: N2YO · Heavens-Above · Gunter

§ Orbital elements

Epoch: 2026-05-24T20:06:14.228352Z

Period
97.30 min
Inclination
51.9002°
Eccentricity
0.0001558
Mean motion
14.79885851 rev/d
Perigee alt
628.6 km
Apogee alt
630.8 km
Semi-major
7,007.8 km
B*
2.7929e-4
RAAN
193.9472°
Arg perigee
72.6616°
Mean anomaly
287.4517°
Rev number
5,222

§ Raw data

KUIPER-000551 64515U 25134R   26144.83766468  .00001906  00000+0  27929-3 0  99982 64515  51.9002 193.9472 0001558  72.6616 287.4517 14.79885851 52223

JSON: /api/v1/satellites/64515 · /tle

For live sub-satellite position, see the globe view (requires WebGL).

§ Visibility from observer

Set your observer location to see the next 7 days of passes ≥ 10°. The values pass through the URL so the page stays shareable.

No JS? Fill the form by hand. The geolocation button needs JavaScript.